sat.trackr.live / text

‹ back to catalog

KUIPER-00300

NORAD 68597 · 2026-072AA

PAYLOAD ACTIVE UNKNOWN

§ Identity

Operator
Country
US
Launch date
2026-04-04
Launch site
AFETR
Launch vehicle
Mass (kg)
RCS (m²)

External: N2YO · Heavens-Above · Gunter

§ Orbital elements

Epoch: 2026-05-25T04:00:03.998880Z

Period
94.44 min
Inclination
51.8790°
Eccentricity
0.0008462
Mean motion
15.24827939 rev/d
Perigee alt
485.5 km
Apogee alt
497.1 km
Semi-major
6,869.4 km
B*
-4.2290e-4
RAAN
288.9679°
Arg perigee
305.4162°
Mean anomaly
256.3132°
Rev number
394

§ Raw data

KUIPER-003001 68597U 26072AA  26145.16671295 -.00010984  00000+0 -42290-3 0  99902 68597  51.8790 288.9679 0008462 305.4162 256.3132 15.24827939  3945

JSON: /api/v1/satellites/68597 · /tle

For live sub-satellite position, see the globe view (requires WebGL).

§ Visibility from observer

Set your observer location to see the next 7 days of passes ≥ 10°. The values pass through the URL so the page stays shareable.

No JS? Fill the form by hand. The geolocation button needs JavaScript.